Weather History for Lordsburg, NM

Change the Weather History Date:

Wednesday, December 4, 2013

  Actual Average Record
Temperature  
Mean Temperature 52 °F -  
Max Temperature 66 °F 61 °F 66 °F (2013)
Min Temperature 39 °F 25 °F 39 °F (2013)
Degree Days  
Heating Degree Days 12    
Growing Degree Days 2 (Base 50)    
Moisture  
Dew Point 30 °F    
Average Humidity 50    
Maximum Humidity 81    
Minimum Humidity 18    
Precipitation  
Precipitation 0.00 in - - ()
Sea Level Pressure  
Sea Level Pressure 29.82 in    
Wind  
Wind Speed 8 mph (WSW)    
Max Wind Speed 29 mph    
Max Gust Speed 43 mph    
Visibility 10 miles    
Events      
Averages and records for this station are not official NWS values.
T = Trace of Precipitation, MM = Missing Value Source: NWS Daily Summary

Daily Weather History Graph

Daily Weather History Graph

Search for Another Location

Airport:

Trip Planner

Search our weather history database for the weather conditions in past years. The results will help you decide how hot, cold, wet, or windy it might be!

Date:

Astronomy

Dec. 04, 2013 Rise Set
Actual Time 7:00 AM MST 5:09 PM MST
Civil Twilight 6:34 AM MST 5:36 PM MST
Nautical Twilight 6:03 AM MST 6:06 PM MST
Astronomical Twilight 5:33 AM MST 6:36 PM MST
Moon 8:34 AM MST (12/4) 7:20 PM MST (12/4)
Length of Visible Light 11h 02m
Length of Day
10h 08m
Waxing Crescent, 5% of the Moon is Illuminated
Dec 4
Waxing Crescent
Dec 9
First Quarter
Dec 17
Full
Dec 25
Last Quarter
Jan 1
New

Hourly Weather History & Observations

Time (MST) Temp. Windchill Dew Point Humidity Pressure Visibility Wind Dir Wind Speed Gust Speed Precip Events Conditions
12:15 AM 42.8 °F 41.1 °F 30.2 °F 61% 29.82 in 10.0 mi SE 3.5 mph - N/A   Clear
12:35 AM 42.8 °F 39.3 °F 32.0 °F 66% 29.82 in 10.0 mi SSW 5.8 mph - N/A   Clear
12:55 AM 44.6 °F 43.1 °F 32.0 °F 61% 29.81 in 10.0 mi SSW 3.5 mph - N/A   Clear
1:15 AM 42.8 °F - 32.0 °F 66% 29.81 in 10.0 mi Calm Calm - N/A   Clear
1:35 AM 41.0 °F 37.1 °F 32.0 °F 70% 29.81 in 10.0 mi SSE 5.8 mph - N/A   Clear
2:15 AM 41.0 °F 38.0 °F 32.0 °F 70% 29.81 in 10.0 mi SSE 4.6 mph - N/A   Clear
2:35 AM 41.0 °F 36.4 °F 32.0 °F 70% 29.81 in 10.0 mi South 6.9 mph - N/A   Clear
2:55 AM 42.8 °F - 32.0 °F 66% 29.81 in 10.0 mi Calm Calm - N/A   Clear
3:15 AM 42.8 °F 40.1 °F 32.0 °F 66% 29.80 in 10.0 mi SSE 4.6 mph - N/A   Clear
3:35 AM 41.0 °F 39.0 °F 32.0 °F 70% 29.80 in 10.0 mi SSE 3.5 mph - N/A   Clear
3:55 AM 41.0 °F 37.1 °F 32.0 °F 70% 29.80 in 10.0 mi South 5.8 mph - N/A   Clear
4:15 AM 41.0 °F 39.0 °F 32.0 °F 70% 29.79 in 10.0 mi South 3.5 mph - N/A   Clear
4:35 AM 42.8 °F 41.1 °F 33.8 °F 70% 29.78 in 10.0 mi South 3.5 mph - N/A   Clear
4:55 AM 42.8 °F - 33.8 °F 70% 29.78 in 10.0 mi Calm Calm - N/A   Clear
5:15 AM 39.2 °F - 32.0 °F 75% 29.79 in 10.0 mi Calm Calm - N/A   Clear
5:35 AM 41.0 °F - 33.8 °F 76% 29.79 in 10.0 mi Calm Calm - N/A   Clear
5:55 AM 41.0 °F 38.0 °F 33.8 °F 76% 29.80 in 10.0 mi SSW 4.6 mph - N/A   Clear
6:15 AM 41.0 °F 38.0 °F 33.8 °F 76% 29.80 in 10.0 mi ESE 4.6 mph - N/A   Clear
6:35 AM 39.2 °F - 33.8 °F 81% 29.80 in 10.0 mi Calm Calm - N/A   Clear
6:55 AM 39.2 °F 35.0 °F 33.8 °F 81% 29.81 in 10.0 mi South 5.8 mph - N/A   Clear
7:15 AM 41.0 °F 37.1 °F 33.8 °F 76% 29.81 in 10.0 mi SSE 5.8 mph - N/A   Scattered Clouds
7:35 AM 42.8 °F 41.1 °F 35.6 °F 76% 29.82 in 10.0 mi SSE 3.5 mph - N/A   Clear
7:55 AM 42.8 °F - 35.6 °F 76% 29.82 in 10.0 mi Calm Calm - N/A   Clear
8:15 AM 44.6 °F - 35.6 °F 71% 29.82 in 10.0 mi Calm Calm - N/A   Clear
8:35 AM 46.4 °F - 35.6 °F 66% 29.83 in 10.0 mi Calm Calm - N/A   Clear
8:55 AM 50.0 °F - 37.4 °F 62% 29.83 in 10.0 mi Calm Calm - N/A   Clear
9:15 AM 55.4 °F - 39.2 °F 54% 29.84 in 10.0 mi SW 4.6 mph - N/A   Clear
9:35 AM 60.8 °F - 39.2 °F 45% 29.85 in 10.0 mi SSW 6.9 mph - N/A   Scattered Clouds
9:55 AM 59.0 °F - 35.6 °F 42% 29.85 in 10.0 mi Calm Calm - N/A   Scattered Clouds
10:15 AM 60.8 °F - 35.6 °F 39% 29.84 in 10.0 mi Calm Calm - N/A   Scattered Clouds
10:35 AM 62.6 °F - 33.8 °F 34% 29.84 in 10.0 mi WSW 15.0 mph 20.7 mph N/A   Clear
10:55 AM 62.6 °F - 32.0 °F 32% 29.83 in 10.0 mi West 25.3 mph 31.1 mph N/A   Scattered Clouds
11:15 AM 64.4 °F - 32.0 °F 30% 29.83 in 10.0 mi West 17.3 mph 28.8 mph N/A   Clear
11:35 AM 64.4 °F - 32.0 °F 30% 29.83 in 10.0 mi West 16.1 mph 31.1 mph N/A   Clear
11:55 AM 64.4 °F - 32.0 °F 30% 29.82 in 10.0 mi WSW 21.9 mph 28.8 mph N/A   Clear
12:15 PM 64.4 °F - 32.0 °F 30% 29.79 in 10.0 mi WSW 23.0 mph 29.9 mph N/A   Clear
12:35 PM 64.4 °F - 32.0 °F 30% 29.78 in 10.0 mi WSW 18.4 mph 33.4 mph N/A   Clear
12:55 PM 66.2 °F - 32.0 °F 28% 29.77 in 10.0 mi West 27.6 mph 33.4 mph N/A   Clear
1:15 PM 66.2 °F - 32.0 °F 28% 29.77 in 10.0 mi West 25.3 mph 36.8 mph N/A   Clear
1:35 PM 66.2 °F - 30.2 °F 26% 29.77 in 10.0 mi West 25.3 mph 40.3 mph N/A   Clear
1:55 PM 64.4 °F - 30.2 °F 28% 29.76 in 10.0 mi West 27.6 mph 42.6 mph N/A   Clear
2:15 PM 64.4 °F - 28.4 °F 26% 29.76 in 10.0 mi WSW 25.3 mph 34.5 mph N/A   Scattered Clouds
2:35 PM 64.4 °F - 26.6 °F 24% 29.76 in 10.0 mi West 26.5 mph 35.7 mph N/A   Scattered Clouds
2:55 PM 64.4 °F - 23.0 °F 21% 29.77 in 10.0 mi WSW 27.6 mph 39.1 mph N/A   Clear
3:15 PM 64.4 °F - 19.4 °F 18% 29.76 in 10.0 mi WSW 23.0 mph 35.7 mph N/A   Clear
3:35 PM 62.6 °F - 17.6 °F 18% 29.76 in 10.0 mi West 28.8 mph 42.6 mph N/A   Clear
3:55 PM 62.6 °F - 19.4 °F 19% 29.77 in 10.0 mi West 23.0 mph 33.4 mph N/A   Clear
4:15 PM 60.8 °F - 19.4 °F 20% 29.78 in 10.0 mi West 27.6 mph 40.3 mph N/A   Clear
4:35 PM 60.8 °F - 19.4 °F 20% 29.78 in 10.0 mi West 20.7 mph 32.2 mph N/A   Clear
4:55 PM 59.0 °F - 19.4 °F 22% 29.78 in 10.0 mi West 20.7 mph 31.1 mph N/A   Clear
5:15 PM 59.0 °F - 19.4 °F 22% 29.79 in 10.0 mi West 21.9 mph 29.9 mph N/A   Clear
5:35 PM 59.0 °F - 21.2 °F 23% 29.80 in 10.0 mi West 17.3 mph 29.9 mph N/A   Clear
5:55 PM 57.2 °F - 21.2 °F 25% 29.80 in 10.0 mi West 13.8 mph 24.2 mph N/A   Clear
6:15 PM 55.4 °F - 23.0 °F 29% 29.81 in 10.0 mi West 17.3 mph 23.0 mph N/A   Clear
6:35 PM 53.6 °F - 23.0 °F 30% 29.82 in 10.0 mi West 15.0 mph 21.9 mph N/A   Clear
6:55 PM 51.8 °F - 26.6 °F 38% 29.84 in 10.0 mi WNW 9.2 mph - N/A   Clear
7:15 PM 50.0 °F - 26.6 °F 40% 29.85 in 10.0 mi NW 4.6 mph - N/A   Clear
7:35 PM 50.0 °F - 26.6 °F 40% 29.85 in 10.0 mi NW 6.9 mph - N/A   Clear
7:55 PM 50.0 °F - 28.4 °F 43% 29.86 in 10.0 mi WNW 5.8 mph - N/A   Clear
8:15 PM 48.2 °F - 28.4 °F 46% 29.86 in 10.0 mi WNW 6.9 mph - N/A   Clear
8:35 PM 46.4 °F 43.5 °F 28.4 °F 50% 29.86 in 10.0 mi NW 5.8 mph - N/A   Clear
8:55 PM 46.4 °F 42.9 °F 30.2 °F 53% 29.86 in 10.0 mi WNW 6.9 mph - N/A   Clear
9:15 PM 46.4 °F 43.5 °F 30.2 °F 53% 29.86 in 10.0 mi NW 5.8 mph - N/A   Clear
9:35 PM 44.6 °F - 32.0 °F 61% 29.87 in 10.0 mi Calm Calm - N/A   Clear
9:55 PM 41.0 °F 38.0 °F 30.2 °F 65% 29.88 in 10.0 mi East 4.6 mph - N/A   Clear
10:15 PM 44.6 °F - 32.0 °F 61% 29.89 in 10.0 mi Calm Calm - N/A   Clear
10:55 PM 42.8 °F 40.1 °F 32.0 °F 66% 29.89 in 10.0 mi North 4.6 mph - N/A   Clear
11:15 PM 44.6 °F 40.7 °F 33.8 °F 66% 29.89 in 10.0 mi North 6.9 mph - N/A   Clear
11:35 PM 44.6 °F 42.2 °F 33.8 °F 66% 29.89 in 10.0 mi North 4.6 mph - N/A   Clear
11:55 PM 44.6 °F 41.4 °F 33.8 °F 66% 29.88 in 10.0 mi North 5.8 mph - N/A   Clear